Weather Roundup
Issued by NWS Chicago, IL

Home | Current Version | Previous Version | Graphics & Text | Print | Product List | Glossary On
Versions: 1 2 3 4 5 6 7 8 9 10 11 12 13 14 15 16 17 18 19 20 21 22 23 24 25 26 27 28 29 30 31 32 33 34 35 36 37 38 39 40 41 42 43 44 45 46 47 48 49 50
000
NZUS59 KLOT 282206
HRRLOT

CHICAGO AREA WEATHER ROUNDUP
NATIONAL WEATHER SERVICE CHICAGO/ROMEOVILLE IL
400 PM CST WED JAN 28 2015

NOTE: "FAIR" INDICATES FEW OR NO CLOUDS BELOW 12,000 FEET WITH NO
SIGNIFICANT WEATHER AND/OR OBSTRUCTIONS TO VISIBILITY.

* THESE STATIONS ARE NOT UNDER NWS QUALITY CONTROL. THEY ALSO MAY NOT
  REPORT WEATHER SUCH AS PRECIPITATION OR FOG.

ILZ005-006-012>014-019>023-282300-
NORTHEAST ILLINOIS

CITY           SKY/WX    TMP DP  RH WIND       PRES   REMARKS
OHARE          CLOUDY    32  21  64 SE14      30.06F WCI  22
MIDWAY         CLOUDY    35  22  58 SE14G22   30.08F WCI  26
AURORA         MOCLDY    34  23  64 SE20      30.03F WCI  23
LANSING*       MOCLDY    33  23  66 SE10G20   30.10F WCI  25
JOLIET*        MOCLDY    33  24  69 SE12G17   30.06F WCI  24
WAUKEGAN       CLOUDY    31  22  69 SE16G23   30.06F WCI  20
DUPAGE AIRPORT CLOUDY    33  22  63 SE15G22   30.03F WCI  23
WHEELING       CLOUDY    33  20  58 S15       30.08F WCI  23
KANKAKEE*      MOCLDY    34  26  72 SE10      30.09F WCI  26
MORRIS*        MOCLDY    34  28  78 SE20      30.04F WCI  23
LEWIS AIRPORT* MOCLDY    33  24  70 SE15      30.06F WCI  22
NORTHERLY IS     N/A     33  23  67 SE12        N/A  WCI  24
$$

WIZ051-052-058>065-066-070>072-282300-
SOUTHEAST WISCONSIN

CITY           SKY/WX    TMP DP  RH WIND       PRES   REMARKS
MILWAUKEE      CLOUDY    33  20  58 S18       30.06F WCI  22
KENOSHA*       MOCLDY    33  21  61 SE17      30.05F WCI  22
RACINE*        MOCLDY    32  21  64 S16G25    30.08F WCI  21
BURLINGTON     MOCLDY    32  19  57 SE12      30.01F WCI  23
WAUKESHA       CLEAR     32  18  55 SE13      30.03F WCI  22
WEST BEND      CLOUDY    32  21  64 SE8       30.03F WCI  25
$$

INZ001>003-010>013-019-020-282300-
NORTHWEST INDIANA

CITY           SKY/WX    TMP DP  RH WIND       PRES   REMARKS
GARY*          MOCLDY    36  18  48 SE17G29   30.11F
MICHIGAN CITY* NOT AVBL
RENSSELAER*    NOT AVBL
VALPARAISO     MOCLDY    31  19  61 SE13      30.12F WCI  21
$$

LMZ740>746-282300-
SOUTHERN LAKE MICHIGAN

STATION/POSITION TIME  SKY/WX   TEMP WIND        PRES    VSBY
                                AIR  DIR/SP/G
                 (UTC)          (F)  (DEG/KT/KT) (MB)    (MI)
HARRISON CRIB    2200            32  150/ 16/ 20   N/A
BURNHAM HARBOR   2200            33  130/ 11/ 15   N/A
CALUMET HARBOR   2200            33  150/ 11/ 15   N/A
BURNS HARBOR     NOT AVBL
MICHIGAN CITY    2200            31  130/ 12/ 16   N/A
$$

ABBREVIATIONS USED IN REMARKS
   TC - TEMPERATURE IN CELSIUS
  WCI - WIND CHILL INDEX
   HX - HEAT INDEX
  VSB - VISIBILITY
$$


USA.gov is the U.S. government's official web portal to all federal, state and local government web resources and services.